SCP
0 0 0 0 0 0 0 0 0 0 0 0 0 0 0 0 0 0 0 0 -0 -0 -0 -0 0 0 0 0 0 0 0 0 0 0 0 0 0 0 0 0 0 0 0 0 0 0 0
0 0 0 0 0 0 0 0 0 0 0 0 0 0 0 0 0 0 0 0 -0 -0 -0 0 0 0 0 0 0 0 0 0 0 0 0 0 0 0 0 0 0 0 0 0 0 0 0
0 0 0 0 0 0 0 0 0 0 0 0 0 0 0 0 0 0 0 0 -0 -0 -0 -0 -0 0 0 0 -0 0 0 0 0 0 0 0 0 0 0 0 0 0 0 0 0 0 0
0 0 0 0 0 0 0 0 0 0 0 0 0 0 0 0 0 0 -0 -0 -0 -0 -0 -0 -0 -0 0 0 0 0 0 0 0 0 0 0 0 0 0 0 0 0 0 0 0 0 0
0 0 0 0 0 0 0 0 0 0 0 0 0 0 0 0 -0 0 -0 -0 0 -0 -0 -0 -0 -0 0 0 0 0 0 0 0 0 0 0 0 0 0 0 0 0 0 0 0 0 0
0 0 0 0 0 0 0 0 0 0 0 0 0 0 0 0 -0 -0 -0 0 0 0 0 0 0 0 -0 0 0 0 0 0 0 0 0 0 0 0 0 0 0 0 0 0 0 0 0
0 0 0 0 0 0 0 0 0 0 0 0 0 -0 0 0 0 -0 0 0 0 0 0 0 0 0 0 0 0 0 0 0 0 0 0 0 0 0 0 0 0 0 0 0 0 0 0
0 0 0 0 0 0 0 0 0 0 0 0 0 -0 -0 0 0 0 0 0 0 0 0 0 0 0 0 0 0 0 0 0 0 0 0 0 0 0 0 0 0 0 0 0 0 0 0
0 0 0 0 0 0 0 0 0 0 0 0 0 -0 -0 0 0 0 0 0 0 0 0 -0 0 -0 0 0 0 0 0 0 0 0 0 0 0 0 0 0 0 0 0 0 0 0 0
0 0 0 0 0 0 0 0 0 0 0 0 -0 -0 -0 0 0 0 0 0 0 0 0 0 0 -0 0 0 0 0 0 0 0 0 0 0 0 0 0 0 0 0 0 0 0 0 0
0 0 0 0 0 0 0 0 0 0 0 0 -0 -0 -0 0 0 0 0 0 0 0 0 0 0 0 0 0 0 0 0 0 0 0 0 0 0 0 0 0 0 0 0 0 0 0 0
0 0 0 0 0 0 0 0 0 0 0 0 -0 -0 0 0 0 0 0 0 0 0 0 0 0 -0 0 0 0 0 0 0 0 0 0 0 0 0 0 0 0 0 0 0 0 0 0
0 0 0 0 0 0 0 0 0 0 0 -0 -0 -0 0 0 0 0 0 0 0 0 0 0 0 -0 0 0 0 0 0 0 0 0 0 0 0 0 0 0 0 0 0 0 0 0 0
0 0 0 0 0 0 0 0 0 0 -0 -0 -0 0 0 0 0 0 0 0 0 0 0 0 0 -0 -0 0 0 0 0 0 0 0 0 0 0 0 0 0 0 0 0 0 0 0 -0
0 0 0 0 0 0 0 0 0 0 -0 -0 0 0 0 0 0 0 0 0 0 0 0 0 0 0 -0 0 0 0 0 0 0 0 0 0 0 0 0 0 0 0 0 0 0 0 0
0 0 0 0 0 0 0 0 0 0 0 0 0 0 0 0 0 0 0 0 0 0 0 0 0 0 -0 -0 0 0 0 0 0 0 0 0 0 0 0 0 0 0 0 0 0 0 0
0 0 0 0 0 0 0 0 0 0 0 0 0 0 0 0 0 0 0 0 0 0 -0 0 0 0 -0 -0 0 0 0 0 0 0 0 0 0 0 0 0 0 0 0 0 0 0 0
0 0 0 0 0 0 0 0 0 0 0 0 0 0 0 0 0 0 0 0 0 0 0 -0 -0 -0 0 0 -0 0 0 0 0 0 0 0 0 0 0 0 0 0 0 0 0 0 0
0 0 0 0 0 0 0 0 0 0 0 0 0 0 0 0 0 0 0 0 0 0 0 0 -0 0 0 0 -0 -0 0 0 0 0 0 0 0 0 0 0 0 0 0 0 0 0 0
0 0 0 0 0 0 0 0 0 0 0 0 0 0 0 0 0 0 0 0 0 0 0 0 0 0 0 0 0 0 0 0 0 0 0 0 0 0 0 0 0 0 0 0 0 0 0
0 0 0 0 0 0 0 0 0 0 0 0 0 0 0 0 0 0 0 0 0 0 0 0 0 0 0 0 0 0 0 0 0 0 0 0 0 0 0 0 0 0 0 0 0 0 0
0 0 0 0 0 0 0 0 0 0 0 0 0 0 0 0 0 0 0 0 0 0 0 0 0 0 0 0 0 0 0 0 0 0 0 0 0 0 0 0 0 0 0 0 0 0 -0
-0 0 0 0 0 0 0 0 0 0 0 0 0 0 0 0 0 0 0 0 0 0 0 0 0 0 0 0 0 0 0 0 0 0 0 0 0 0 0 0 0 0 0 0 0 0 0
-0 0 0 0 0 0 0 0 0 0 0 0 0 0 0 0 0 0 0 0 0 0 0 0 0 0 0 0 0 0 0 0 0 0 0 0 0 0 0 0 0 0 0 0 0 0 0
0 0 0 0 0 0 0 0 0 0 0 0 0 0 0 0 0 0 0 -0 0 0 0 0 0 0 0 0 0 0 0 0 0 0 0 0 0 0 0 0 0 0 0 0 0 0 0
0 0 0 0 0 0 0 0 0 0 0 0 0 0 0 0 0 0 0 -0 -0 0 0 0 0 0 0 0 0 0 0 0 0 0 0 0 0 0 0 0 0 0 0 0 0 0 0
0 0 0 0 0 0 0 0 0 0 0 0 0 0 0 0 0 0 0 0 -0 0 0 0 0 0 0 0 0 0 0 0 0 0 0 0 0 0 0 0 0 0 0 0 0 0 0
0 0 0 0 0 0 0 0 0 0 0 0 0 0 0 0 0 0 -0 -0 -0 0 0 0 0 0 0 0 0 0 0 0 0 0 0 0 0 0 0 0 0 -0 0 0 0 0 0
0 0 0 0 -0 -0 0 0 0 -0 0 0 0 0 0 0 0 0 -0 -0 -0 0 0 0 0 0 0 0 0 0 0 0 0 0 0 0 0 0 0 0 0 0 0 0 0 0 0
Wind_Speed_500mb
36 38 39 39 36 39 37 39 40 32 26 29 47 40 35 33 31 26 23 19 16 13 16 13 7 2 17 13 13 10 12 13 40 35 42 35 44 29 13 19 30 9 30 38 39 23 10
36 38 38 39 38 38 39 40 42 43 35 31 28 44 35 28 27 25 20 12 14 13 14 11 12 2 14 4 17 29 18 13 42 41 50 42 36 35 16 13 21 23 23 34 39 31 20
38 38 39 37 35 37 40 38 37 42 44 36 33 23 37 30 24 22 18 14 11 11 8 6 10 9 4 11 7 9 18 14 52 44 53 48 26 41 11 6 29 13 19 16 22 25 6
38 39 41 38 36 35 37 36 42 37 35 45 37 32 25 27 25 19 19 14 10 9 9 6 0 2 3 12 8 3 17 13 52 41 53 47 29 45 7 15 16 9 9 10 10 26 12
39 38 41 42 37 34 37 39 41 42 42 37 42 35 33 17 21 18 12 15 8 6 4 6 7 8 4 12 8 8 17 14 47 43 48 42 37 21 8 15 6 7 10 10 10 30 16
41 39 38 43 40 35 38 41 40 42 40 42 39 40 32 24 15 15 10 11 7 2 2 3 7 5 9 14 9 4 8 7 35 41 21 23 17 8 5 14 29 13 10 7 14 24 14
41 41 38 42 44 37 38 43 41 42 43 43 41 39 34 26 16 11 11 9 6 2 3 2 4 5 7 8 4 2 6 5 27 37 4 31 5 29 14 10 3 16 10 10 4 17 12
46 44 39 43 44 42 40 44 44 43 42 44 42 42 35 22 15 8 6 4 3 3 2 2 5 5 5 5 5 7 7 6 8 12 11 4 14 12 11 14 12 13 13 10 3 11 13
50 47 40 42 46 44 48 45 45 41 43 44 43 42 38 24 12 9 4 3 3 9 2 3 1 3 3 5 5 6 6 18 20 9 11 6 14 19 12 10 14 6 15 9 11 9 4
51 47 41 45 47 50 47 42 43 44 45 45 41 38 34 15 7 11 7 7 0 9 3 6 4 1 3 5 8 8 5 7 7 11 13 6 6 15 15 10 11 8 9 10 14 11 9
45 44 42 45 49 50 45 41 43 45 45 44 44 37 22 9 4 10 6 6 2 2 1 3 1 3 6 8 13 7 8 8 12 14 4 2 7 21 13 13 8 5 11 11 6 8 6
44 41 41 43 48 49 45 43 44 45 45 44 35 27 11 7 12 11 10 5 3 9 4 6 2 1 3 1 4 11 5 16 9 9 8 6 2 5 8 9 10 14 13 12 8 6 2
39 37 38 41 46 46 46 43 43 43 45 40 29 12 4 8 6 16 9 6 6 8 5 10 7 6 5 2 5 4 6 4 5 6 5 6 4 4 5 12 7 6 11 5 6 4 8
33 34 34 40 44 43 44 45 43 41 41 31 13 10 9 8 12 14 12 6 12 6 3 9 11 7 1 5 8 5 7 5 2 4 6 4 6 5 8 7 12 6 9 9 8 6 6
29 32 31 38 39 40 44 42 40 41 32 21 6 13 10 10 12 11 1 8 11 10 3 9 11 9 3 4 7 7 5 3 7 4 6 6 6 2 7 4 4 6 5 8 12 6 6
26 27 30 33 34 37 41 40 39 39 29 9 16 10 8 10 14 9 3 4 1 6 8 9 6 6 8 14 11 12 13 3 6 5 3 6 10 5 4 4 9 7 13 4 5 4 6
24 25 27 28 30 35 39 38 39 36 25 10 15 4 6 12 15 3 3 8 5 8 5 5 2 8 8 11 11 10 18 2 8 8 7 5 6 4 5 6 11 5 3 6 8 7 8
23 23 23 22 28 32 33 35 38 34 20 11 7 2 7 15 4 3 3 7 4 6 2 3 3 6 9 12 9 10 14 3 21 19 11 5 7 6 3 5 6 4 6 8 8 6 2
24 21 19 18 25 26 27 31 37 30 21 7 1 4 8 10 2 3 8 1 1 8 8 8 8 8 6 6 7 3 4 5 27 8 13 12 5 8 3 5 4 7 9 6 6 6 14
26 20 13 14 21 21 23 28 32 29 21 6 1 1 4 9 6 4 3 4 4 5 4 6 4 7 6 10 11 6 5 5 6 9 17 8 5 9 11 8 6 9 17 20 9 9 12
25 16 7 12 18 18 20 24 26 27 18 4 0 1 3 3 4 6 2 3 3 4 7 19 8 9 2 5 5 6 6 8 12 7 8 4 6 6 7 8 10 6 11 24 27 31 24
25 17 4 9 14 15 19 21 22 24 11 8 3 3 3 1 5 2 9 10 7 7 10 8 9 10 7 8 4 8 9 4 8 4 7 4 2 4 9 6 4 8 15 19 37 42 30
26 17 6 6 11 14 17 19 21 20 17 11 6 7 0 9 6 3 4 5 8 8 10 13 5 6 12 6 9 6 7 4 7 14 7 7 9 5 7 7 6 14 27 25 10 14 30
28 18 9 3 7 11 15 20 21 22 22 21 11 5 2 4 7 6 6 5 10 12 4 11 20 7 4 14 4 7 19 15 12 9 10 10 8 5 5 4 1 12 4 11 25 27 28
31 21 13 3 4 6 12 17 19 21 22 22 21 8 5 6 3 8 16 8 8 7 7 6 13 14 10 4 6 6 9 4 2 4 4 6 8 4 6 5 14 5 1 7 10 11 10
34 24 14 7 4 6 12 14 17 19 19 19 21 15 8 15 6 4 4 9 4 7 5 6 7 16 6 5 5 5 5 6 3 2 6 6 7 6 4 2 8 8 4 7 8 7 7
38 24 18 10 7 10 12 12 14 15 18 18 25 16 9 14 13 9 7 3 5 6 3 7 16 17 20 4 4 3 3 4 4 7 7 5 4 8 7 6 13 11 9 8 3 9 23
38 27 18 14 16 15 13 13 14 17 17 16 26 17 13 13 15 15 11 8 7 9 4 15 4 11 9 7 3 2 2 3 4 4 8 11 8 7 2 5 11 6 1 4 9 21 29
37 30 25 22 18 12 11 13 18 18 18 20 29 23 26 18 17 20 26 23 6 5 5 7 7 4 2 1 4 3 4 4 1 5 3 4 8 2 12 10 8 8 19 27 36 45 42
Wind_Direction_500mb
341 345 350 348 347 350 351 346 348 343 337 344 338 347 348 354 357 2 6 18 20 17 7 5 344 293 181 182 228 262 38 226 207 204 210 188 182 195 195 182 182 195 181 193 215 202 227
336 340 345 344 345 346 352 347 348 349 344 337 336 338 344 347 350 358 5 13 10 15 14 33 32 150 199 237 253 275 301 266 209 205 200 193 188 186 217 184 188 197 171 156 168 158 181
331 334 337 340 340 344 348 347 344 343 347 340 333 328 338 331 338 352 352 0 351 346 1 40 25 151 209 250 299 221 309 236 205 215 192 193 181 190 181 132 198 165 156 150 154 142 140
330 328 332 335 338 340 340 345 347 346 342 335 336 331 313 333 325 326 338 340 328 330 341 3 250 38 228 0 206 330 348 200 186 207 195 191 181 189 199 149 117 142 142 167 162 162 125
326 324 328 330 334 337 338 340 342 339 340 338 330 328 322 318 327 307 321 341 322 319 360 40 32 352 25 28 136 40 3 177 180 184 190 185 182 188 158 132 86 207 162 155 161 186 148
324 322 324 325 330 333 334 336 337 334 334 334 331 327 322 319 305 313 300 294 1 331 118 345 359 359 38 343 340 66 12 63 168 160 165 170 176 151 138 170 193 160 108 182 158 191 168
318 321 320 324 326 330 332 330 333 331 330 329 330 328 328 315 302 292 302 305 283 275 287 78 3 331 343 42 61 106 32 359 143 152 88 136 239 195 156 118 173 121 111 150 99 172 155
315 318 317 322 325 327 328 332 329 328 327 327 329 328 324 309 297 267 294 286 149 62 322 16 301 308 354 357 61 56 79 105 165 124 43 142 220 165 147 98 121 112 124 169 90 150 152
311 314 316 321 324 327 331 328 327 329 326 327 326 327 321 316 271 227 226 182 121 14 19 320 6 344 101 95 66 26 58 103 118 83 164 189 162 146 135 110 115 44 138 156 156 98 15
304 311 314 319 324 334 332 328 329 331 329 327 324 324 319 320 268 209 214 196 109 349 75 170 177 62 111 103 57 95 84 108 100 118 132 3 305 134 141 124 123 116 171 130 143 131 189
299 308 313 319 330 334 334 332 334 331 332 329 323 317 320 263 200 181 198 211 325 72 7 113 41 149 85 77 136 39 70 32 98 138 158 174 187 145 156 172 117 143 147 119 98 93 110
300 305 313 320 332 334 336 333 330 333 332 328 319 315 302 230 214 194 160 158 83 45 13 106 66 200 78 47 104 135 91 51 133 105 90 73 98 77 161 160 109 166 91 60 71 93 343
294 304 312 322 332 333 333 336 338 337 336 333 325 324 208 147 160 161 160 144 36 77 191 136 119 189 225 102 90 103 74 86 153 122 76 46 51 79 60 100 56 74 80 37 28 12 223
291 302 312 324 329 332 337 340 340 341 339 342 341 97 125 137 131 152 152 62 71 241 3 95 122 131 151 163 66 79 150 142 172 109 108 119 123 45 359 114 159 166 130 146 166 195 242
289 298 315 323 329 336 341 344 349 349 344 349 120 109 113 128 143 159 264 52 195 198 184 105 134 158 182 260 126 149 237 190 169 202 117 108 63 57 38 359 92 214 151 163 106 25 46
282 296 313 322 332 340 346 349 352 351 349 16 151 121 107 141 147 161 56 265 230 220 141 138 226 189 143 168 145 175 200 208 142 147 159 168 112 29 98 59 25 129 157 79 9 126 269
275 291 311 321 337 341 346 354 355 355 357 122 157 143 112 149 154 139 175 245 273 252 180 175 162 149 119 154 177 164 189 168 162 132 104 132 76 43 133 169 171 102 124 71 123 137 182
265 284 307 323 344 343 351 358 357 354 3 152 178 110 144 148 223 40 225 209 357 346 35 305 27 76 144 171 144 184 188 180 180 157 128 151 110 122 44 12 46 79 172 160 137 228 204
252 278 293 333 344 346 358 1 1 355 352 170 134 125 157 179 293 283 288 259 7 32 5 25 30 26 52 100 102 80 107 326 158 141 151 175 130 116 27 324 6 222 181 205 109 86 198
243 266 284 337 340 352 2 1 356 357 353 155 145 95 163 211 258 244 344 359 101 50 58 12 29 47 60 47 26 121 95 75 135 81 90 96 129 160 182 193 134 190 204 201 168 223 239
234 250 274 328 339 2 8 7 357 2 360 143 182 206 163 206 279 331 282 331 348 89 28 21 33 42 25 99 57 89 65 57 37 80 64 118 156 151 235 200 159 220 227 205 211 230 227
226 230 233 314 345 5 9 6 360 6 15 60 149 125 152 7 269 231 357 8 47 351 28 8 54 11 44 84 52 186 127 149 178 137 144 1 229 72 335 343 233 269 246 226 227 237 251
216 210 205 304 358 9 10 11 16 23 36 69 69 98 274 347 334 87 44 37 12 322 55 53 307 93 50 23 327 329 267 237 179 145 137 129 130 83 270 355 352 293 238 217 212 230 229
205 186 204 264 23 20 14 17 27 29 40 60 65 105 80 357 51 37 10 16 10 347 36 21 23 73 348 327 73 87 63 106 100 65 130 129 104 87 215 26 311 242 188 193 213 241 231
194 181 199 186 63 34 33 35 34 34 42 51 53 79 77 88 4 31 25 352 24 9 35 74 32 349 330 82 63 44 354 45 71 141 127 127 122 101 136 204 290 331 114 143 174 280 226
186 185 192 162 134 79 63 61 49 55 48 49 52 64 91 123 26 341 13 21 47 348 35 29 355 21 18 82 87 124 197 215 217 105 86 126 103 116 153 174 252 248 311 206 149 297 234
181 186 191 166 143 97 81 84 70 61 52 58 52 47 106 100 43 51 71 19 24 26 344 344 339 7 11 50 87 123 275 218 153 182 172 157 184 182 216 246 287 252 285 157 77 254 311
179 188 186 160 129 104 97 92 84 60 62 60 42 56 119 96 70 59 57 45 42 47 44 339 340 9 14 62 78 127 107 316 346 217 187 180 162 215 169 206 286 213 80 165 237 312 322
180 183 169 155 132 119 98 86 93 71 75 64 63 86 101 91 111 87 58 47 107 50 26 38 128 57 27 348 64 31 31 33 316 283 14 270 191 209 187 219 260 318 287 287 316 309 307
Wind_Speed_850mb
36 38 39 39 36 39 37 39 40 32 26 29 47 40 35 33 31 26 23 19 16 13 16 13 7 2 17 13 13 10 12 13 40 35 42 35 44 29 13 19 30 9 30 38 39 23 10
36 38 38 39 38 38 39 40 42 43 35 31 28 44 35 28 27 25 20 12 14 13 14 11 12 2 14 4 17 29 18 13 42 41 50 42 36 35 16 13 21 23 23 34 39 31 20
38 38 39 37 35 37 40 38 37 42 44 36 33 23 37 30 24 22 18 14 11 11 8 6 10 9 4 11 7 9 18 14 52 44 53 48 26 41 11 6 29 13 19 16 22 25 6
38 39 41 38 36 35 37 36 42 37 35 45 37 32 25 27 25 19 19 14 10 9 9 6 0 2 3 12 8 3 17 13 52 41 53 47 29 45 7 15 16 9 9 10 10 26 12
39 38 41 42 37 34 37 39 41 42 42 37 42 35 33 17 21 18 12 15 8 6 4 6 7 8 4 12 8 8 17 14 47 43 48 42 37 21 8 15 6 7 10 10 10 30 16
41 39 38 43 40 35 38 41 40 42 40 42 39 40 32 24 15 15 10 11 7 2 2 3 7 5 9 14 9 4 8 7 35 41 21 23 17 8 5 14 29 13 10 7 14 24 14
41 41 38 42 44 37 38 43 41 42 43 43 41 39 34 26 16 11 11 9 6 2 3 2 4 5 7 8 4 2 6 5 27 37 4 31 5 29 14 10 3 16 10 10 4 17 12
46 44 39 43 44 42 40 44 44 43 42 44 42 42 35 22 15 8 6 4 3 3 2 2 5 5 5 5 5 7 7 6 8 12 11 4 14 12 11 14 12 13 13 10 3 11 13
50 47 40 42 46 44 48 45 45 41 43 44 43 42 38 24 12 9 4 3 3 9 2 3 1 3 3 5 5 6 6 18 20 9 11 6 14 19 12 10 14 6 15 9 11 9 4
51 47 41 45 47 50 47 42 43 44 45 45 41 38 34 15 7 11 7 7 0 9 3 6 4 1 3 5 8 8 5 7 7 11 13 6 6 15 15 10 11 8 9 10 14 11 9
45 44 42 45 49 50 45 41 43 45 45 44 44 37 22 9 4 10 6 6 2 2 1 3 1 3 6 8 13 7 8 8 12 14 4 2 7 21 13 13 8 5 11 11 6 8 6
44 41 41 43 48 49 45 43 44 45 45 44 35 27 11 7 12 11 10 5 3 9 4 6 2 1 3 1 4 11 5 16 9 9 8 6 2 5 8 9 10 14 13 12 8 6 2
39 37 38 41 46 46 46 43 43 43 45 40 29 12 4 8 6 16 9 6 6 8 5 10 7 6 5 2 5 4 6 4 5 6 5 6 4 4 5 12 7 6 11 5 6 4 8
33 34 34 40 44 43 44 45 43 41 41 31 13 10 9 8 12 14 12 6 12 6 3 9 11 7 1 5 8 5 7 5 2 4 6 4 6 5 8 7 12 6 9 9 8 6 6
29 32 31 38 39 40 44 42 40 41 32 21 6 13 10 10 12 11 1 8 11 10 3 9 11 9 3 4 7 7 5 3 7 4 6 6 6 2 7 4 4 6 5 8 12 6 6
26 27 30 33 34 37 41 40 39 39 29 9 16 10 8 10 14 9 3 4 1 6 8 9 6 6 8 14 11 12 13 3 6 5 3 6 10 5 4 4 9 7 13 4 5 4 6
24 25 27 28 30 35 39 38 39 36 25 10 15 4 6 12 15 3 3 8 5 8 5 5 2 8 8 11 11 10 18 2 8 8 7 5 6 4 5 6 11 5 3 6 8 7 8
23 23 23 22 28 32 33 35 38 34 20 11 7 2 7 15 4 3 3 7 4 6 2 3 3 6 9 12 9 10 14 3 21 19 11 5 7 6 3 5 6 4 6 8 8 6 2
24 21 19 18 25 26 27 31 37 30 21 7 1 4 8 10 2 3 8 1 1 8 8 8 8 8 6 6 7 3 4 5 27 8 13 12 5 8 3 5 4 7 9 6 6 6 14
26 20 13 14 21 21 23 28 32 29 21 6 1 1 4 9 6 4 3 4 4 5 4 6 4 7 6 10 11 6 5 5 6 9 17 8 5 9 11 8 6 9 17 20 9 9 12
25 16 7 12 18 18 20 24 26 27 18 4 0 1 3 3 4 6 2 3 3 4 7 19 8 9 2 5 5 6 6 8 12 7 8 4 6 6 7 8 10 6 11 24 27 31 24
25 17 4 9 14 15 19 21 22 24 11 8 3 3 3 1 5 2 9 10 7 7 10 8 9 10 7 8 4 8 9 4 8 4 7 4 2 4 9 6 4 8 15 19 37 42 30
26 17 6 6 11 14 17 19 21 20 17 11 6 7 0 9 6 3 4 5 8 8 10 13 5 6 12 6 9 6 7 4 7 14 7 7 9 5 7 7 6 14 27 25 10 14 30
28 18 9 3 7 11 15 20 21 22 22 21 11 5 2 4 7 6 6 5 10 12 4 11 20 7 4 14 4 7 19 15 12 9 10 10 8 5 5 4 1 12 4 11 25 27 28
31 21 13 3 4 6 12 17 19 21 22 22 21 8 5 6 3 8 16 8 8 7 7 6 13 14 10 4 6 6 9 4 2 4 4 6 8 4 6 5 14 5 1 7 10 11 10
34 24 14 7 4 6 12 14 17 19 19 19 21 15 8 15 6 4 4 9 4 7 5 6 7 16 6 5 5 5 5 6 3 2 6 6 7 6 4 2 8 8 4 7 8 7 7
38 24 18 10 7 10 12 12 14 15 18 18 25 16 9 14 13 9 7 3 5 6 3 7 16 17 20 4 4 3 3 4 4 7 7 5 4 8 7 6 13 11 9 8 3 9 23
38 27 18 14 16 15 13 13 14 17 17 16 26 17 13 13 15 15 11 8 7 9 4 15 4 11 9 7 3 2 2 3 4 4 8 11 8 7 2 5 11 6 1 4 9 21 29
37 30 25 22 18 12 11 13 18 18 18 20 29 23 26 18 17 20 26 23 6 5 5 7 7 4 2 1 4 3 4 4 1 5 3 4 8 2 12 10 8 8 19 27 36 45 42
Wind_Direction_850mb
341 345 350 348 347 350 351 346 348 343 337 344 338 347 348 354 357 2 6 18 20 17 7 5 344 293 181 182 228 262 38 226 207 204 210 188 182 195 195 182 182 195 181 193 215 202 227
336 340 345 344 345 346 352 347 348 349 344 337 336 338 344 347 350 358 5 13 10 15 14 33 32 150 199 237 253 275 301 266 209 205 200 193 188 186 217 184 188 197 171 156 168 158 181
331 334 337 340 340 344 348 347 344 343 347 340 333 328 338 331 338 352 352 0 351 346 1 40 25 151 209 250 299 221 309 236 205 215 192 193 181 190 181 132 198 165 156 150 154 142 140
330 328 332 335 338 340 340 345 347 346 342 335 336 331 313 333 325 326 338 340 328 330 341 3 250 38 228 0 206 330 348 200 186 207 195 191 181 189 199 149 117 142 142 167 162 162 125
326 324 328 330 334 337 338 340 342 339 340 338 330 328 322 318 327 307 321 341 322 319 360 40 32 352 25 28 136 40 3 177 180 184 190 185 182 188 158 132 86 207 162 155 161 186 148
324 322 324 325 330 333 334 336 337 334 334 334 331 327 322 319 305 313 300 294 1 331 118 345 359 359 38 343 340 66 12 63 168 160 165 170 176 151 138 170 193 160 108 182 158 191 168
318 321 320 324 326 330 332 330 333 331 330 329 330 328 328 315 302 292 302 305 283 275 287 78 3 331 343 42 61 106 32 359 143 152 88 136 239 195 156 118 173 121 111 150 99 172 155
315 318 317 322 325 327 328 332 329 328 327 327 329 328 324 309 297 267 294 286 149 62 322 16 301 308 354 357 61 56 79 105 165 124 43 142 220 165 147 98 121 112 124 169 90 150 152
311 314 316 321 324 327 331 328 327 329 326 327 326 327 321 316 271 227 226 182 121 14 19 320 6 344 101 95 66 26 58 103 118 83 164 189 162 146 135 110 115 44 138 156 156 98 15
304 311 314 319 324 334 332 328 329 331 329 327 324 324 319 320 268 209 214 196 109 349 75 170 177 62 111 103 57 95 84 108 100 118 132 3 305 134 141 124 123 116 171 130 143 131 189
299 308 313 319 330 334 334 332 334 331 332 329 323 317 320 263 200 181 198 211 325 72 7 113 41 149 85 77 136 39 70 32 98 138 158 174 187 145 156 172 117 143 147 119 98 93 110
300 305 313 320 332 334 336 333 330 333 332 328 319 315 302 230 214 194 160 158 83 45 13 106 66 200 78 47 104 135 91 51 133 105 90 73 98 77 161 160 109 166 91 60 71 93 343
294 304 312 322 332 333 333 336 338 337 336 333 325 324 208 147 160 161 160 144 36 77 191 136 119 189 225 102 90 103 74 86 153 122 76 46 51 79 60 100 56 74 80 37 28 12 223
291 302 312 324 329 332 337 340 340 341 339 342 341 97 125 137 131 152 152 62 71 241 3 95 122 131 151 163 66 79 150 142 172 109 108 119 123 45 359 114 159 166 130 146 166 195 242
289 298 315 323 329 336 341 344 349 349 344 349 120 109 113 128 143 159 264 52 195 198 184 105 134 158 182 260 126 149 237 190 169 202 117 108 63 57 38 359 92 214 151 163 106 25 46
282 296 313 322 332 340 346 349 352 351 349 16 151 121 107 141 147 161 56 265 230 220 141 138 226 189 143 168 145 175 200 208 142 147 159 168 112 29 98 59 25 129 157 79 9 126 269
275 291 311 321 337 341 346 354 355 355 357 122 157 143 112 149 154 139 175 245 273 252 180 175 162 149 119 154 177 164 189 168 162 132 104 132 76 43 133 169 171 102 124 71 123 137 182
265 284 307 323 344 343 351 358 357 354 3 152 178 110 144 148 223 40 225 209 357 346 35 305 27 76 144 171 144 184 188 180 180 157 128 151 110 122 44 12 46 79 172 160 137 228 204
252 278 293 333 344 346 358 1 1 355 352 170 134 125 157 179 293 283 288 259 7 32 5 25 30 26 52 100 102 80 107 326 158 141 151 175 130 116 27 324 6 222 181 205 109 86 198
243 266 284 337 340 352 2 1 356 357 353 155 145 95 163 211 258 244 344 359 101 50 58 12 29 47 60 47 26 121 95 75 135 81 90 96 129 160 182 193 134 190 204 201 168 223 239
234 250 274 328 339 2 8 7 357 2 360 143 182 206 163 206 279 331 282 331 348 89 28 21 33 42 25 99 57 89 65 57 37 80 64 118 156 151 235 200 159 220 227 205 211 230 227
226 230 233 314 345 5 9 6 360 6 15 60 149 125 152 7 269 231 357 8 47 351 28 8 54 11 44 84 52 186 127 149 178 137 144 1 229 72 335 343 233 269 246 226 227 237 251
216 210 205 304 358 9 10 11 16 23 36 69 69 98 274 347 334 87 44 37 12 322 55 53 307 93 50 23 327 329 267 237 179 145 137 129 130 83 270 355 352 293 238 217 212 230 229
205 186 204 264 23 20 14 17 27 29 40 60 65 105 80 357 51 37 10 16 10 347 36 21 23 73 348 327 73 87 63 106 100 65 130 129 104 87 215 26 311 242 188 193 213 241 231
194 181 199 186 63 34 33 35 34 34 42 51 53 79 77 88 4 31 25 352 24 9 35 74 32 349 330 82 63 44 354 45 71 141 127 127 122 101 136 204 290 331 114 143 174 280 226
186 185 192 162 134 79 63 61 49 55 48 49 52 64 91 123 26 341 13 21 47 348 35 29 355 21 18 82 87 124 197 215 217 105 86 126 103 116 153 174 252 248 311 206 149 297 234
181 186 191 166 143 97 81 84 70 61 52 58 52 47 106 100 43 51 71 19 24 26 344 344 339 7 11 50 87 123 275 218 153 182 172 157 184 182 216 246 287 252 285 157 77 254 311
179 188 186 160 129 104 97 92 84 60 62 60 42 56 119 96 70 59 57 45 42 47 44 339 340 9 14 62 78 127 107 316 346 217 187 180 162 215 169 206 286 213 80 165 237 312 322
180 183 169 155 132 119 98 86 93 71 75 64 63 86 101 91 111 87 58 47 107 50 26 38 128 57 27 348 64 31 31 33 316 283 14 270 191 209 187 219 260 318 287 287 316 309 307